Weather in Balakhonikha

Russia / Nizhny Novgorod Oblast'     55˚28′50″N   43˚21′56″E
temp.,
°C
wind,
m/s
gust,
m/s
humid.,
%
clouds,
%
prec.,
mm/h
press.,
hPa
HPBL,
m
17 january, sun
sun1700:00−16˚wnw369799 0.1 1003204
03:00−16˚wnw3696100 0.2 1005247
06:00−17˚wnw3696100 0.1 1007267
09:00−20˚wnw269999 0.1 1010159
12:00−20˚nw249496 0.0 1012298
15:00−20˚nw249588 0.0 1014196
18:00−25˚nnw239819 0.0 101626
21:00−26˚wnw129918 0.0 101819
18 january, mon
mon1800:00−27˚nnw12995 0.0 101919
03:00−27˚nw119939 0.0 101919
06:00−28˚wnw1110062 0.0 101919
09:00−27˚nw009955 0.0 102019
12:00−21˚sw119487 0.0 1020157
15:00−21˚s119793 0.0 101920
18:00−24˚sw0098100 0.0 101920
21:00−24˚wnw0197100 0.0 101920
19 january, tue
tue1900:00−23˚ene1196100 0.0 101820
03:00−23˚ne1196100 0.0 101820
06:00−22˚nne1195100 0.0 101829
09:00−22˚ne1295100 0.0 101872
12:00−19˚ene1290100 0.0 1017246
15:00−18˚nne1291100 0.0 1016265
18:00−19˚nne2297100 0.0 101764
21:00−21˚ne1296100 0.0 101720
20 january, wed
wed2000:00−22˚n129699 0.0 101720
03:00−25˚nnw229668 0.0 101820
06:00−26˚nnw22982 0.0 101920
09:00−25˚nw229815 0.0 102020
12:00−19˚nw239568 0.0 1021210
15:00−18˚wnw239671 0.0 1021165
18:00−22˚wnw229917 0.0 102220
21:00−22˚w229919 0.0 102320
21 january, thu
thu2100:00−21˚wsw2310047 0.0 102342
03:00−21˚wsw3410063 0.0 102382
06:00−20˚wsw3610090 0.0 1023106
09:00−19˚wsw379895 0.0 1023179
12:00−15˚sw3694100 0.0 1022257
15:00−13˚sw4893100 0.0 1021295
18:00−13˚ssw51091100 0.0 1019318
21:00−12˚sw51194100 0.6 1017476